Flag for Argentina Weather past 2 weeks in Zárate, Buenos Aires, Argentina

Now
68 °F

Passing clouds.


Feels Like: 68 °F
Forecast: 55 / 88 °F
Wind: 17 mph from Southeast

Location: Buenos Aires Airport

Current Time: Feb 27, 2015 at 9:56:41 PM

Latest Report: Feb 27, 2015 at 9:00 PM


Visibility: N/A

Pressure: 30.07 "Hg

Humidity: 56%

Dew point: 52 °F

Location of ZárateLocation

Historic Weather in Zárate — Graph

°F

Zárate temperature yesterday

Maximum temperature yesterday: 79 °F (at 3:00 PM)
Minimum temperature yesterday: 70 °F (at 2:00 AM)
Average temperature yesterday: 74 °F

Past Weeks' High & Low Weather Summary

 TemperatureHumidityPressure
High86 °F (Feb 24, 3:00 PM)94% (Feb 18, 9:00 PM)30.15 "Hg (Feb 18, 9:00 PM)
Low57 °F (Feb 20, 7:00 AM)36% (Feb 19, 6:00 PM)29.62 "Hg (Feb 18, 4:00 PM)
Average74 °F70%29.97 "Hg
* Reported Feb 12 9:00 PM — Feb 27 9:00 PM, Zárate, Weather by CustomWeather, © 2015

Note: Actual official high and low records may vary slightly from our data, if they occured in-between our weather recording intervals... More about our weather records

Advertising

Zárate weather history for previous 24 hours

 ConditionsComfort  
Time TempWeatherWind HumidityBarometerVisibility
9:00 PM
Fri, Feb 27
68 °FPassing clouds.17 mph56%30.07 "HgN/A
8:00 PM68 °FClear.17 mph64%30.04 "Hg10 mi
7:00 PM70 °FClear.23 mph64%30.01 "Hg10 mi
6:00 PM73 °FSunny.15 mph65%30.01 "Hg10 mi
5:00 PM77 °FPassing clouds.14 mph57%30.01 "HgN/A
4:00 PM79 °FPassing clouds.14 mph54%30.01 "HgN/A
3:00 PM79 °FPassing clouds.14 mph51%29.98 "HgN/A
2:00 PM79 °FPassing clouds.10 mph54%29.98 "HgN/A
1:00 PM77 °FPassing clouds.8 mph54%29.98 "HgN/A
12:00 PM77 °FPassing clouds.10 mph51%29.98 "HgN/A
11:00 AM77 °FPassing clouds.17 mph44%29.98 "HgN/A
10:00 AM75 °FPassing clouds.20 mph50%29.98 "HgN/A
9:00 AM73 °FPassing clouds.18 mph57%29.95 "HgN/A
8:00 AM72 °FScattered clouds.13 mph83%29.95 "HgN/A
7:00 AM72 °FPartly sunny.8 mph83%29.92 "HgN/A
6:00 AM70 °FDrizzle. More clouds than sun.7 mph88%29.92 "Hg1 mi
5:00 AM75 °FPartly cloudy.12 mph78%29.89 "HgN/A
4:00 AM75 °FPartly cloudy.8 mph78%29.89 "HgN/A
3:00 AM75 °FPassing clouds.6 mph74%29.89 "HgN/A
2:00 AM73 °FPassing clouds.6 mph83%29.86 "HgN/A
1:00 AM73 °FPassing clouds.No wind78%29.86 "HgN/A
12:00 AM73 °FPassing clouds.7 mph83%29.86 "HgN/A
11:00 PM
Thu, Feb 26
75 °FPassing clouds.10 mph78%29.86 "HgN/A
10:00 PM75 °FPassing clouds.8 mph78%29.83 "HgN/A
9:00 PM75 °FPassing clouds.8 mph78%29.83 "HgN/A
Weather by CustomWeather, © 2015

See weather overviewHow to use our weather pages